Hourly Data Report for April 23, 2004

SHERBROOKE A
QUEBEC

45°26'00.000" N
71°41'00.000" W
241.40 m
7028124
71610
YSC

Download Data

Hourly Data (April 2004)
Hourly Data Report for April 23, 2004
TIME
LST
Temp Definition
°C
Dew Point Definition
°C
Rel Hum Definition
%
Precip. Amount Definition
mm

Wind Dir Definition
10's deg

Wind Spd Definition
km/h
Visibility Definition
km
Stn Press Definition
kPa
Hmdx Definition


Wind Chill Definition


Weather Definition


00:00 3.9 -2.5 63   35 11 15.0 99.31      
01:00 1.9 -4.0 65   31 11 15.0 99.34      
02:00 -0.5 -4.5 74   36 6 15.0 99.34   -3  
03:00 -1.2 -5.3 74   33 7 15.0 99.32   -4  
04:00 -3.0 -5.8 81     0 15.0 99.37      
05:00 -2.8 -5.5 82   29 4 15.0 99.43   -4  
06:00 -1.7 -4.6 81     0 15.0 99.48      
07:00 -0.5 -5.2 70   4 6 24.1 99.53   -3 Mostly Cloudy
08:00 1.1 -4.9 64   2 13 24.1 99.54     Mostly Cloudy
09:00 2.7 -4.5 59   9 6 24.1 99.53     Mostly Cloudy
10:00 4.3 -5.3 50   4 13 24.1 99.48     Mostly Cloudy
11:00 6.1 -5.7 42   36 7 24.1 99.44     Mostly Cloudy
12:00 7.6 -5.8 38   1 6 24.1 99.35     Mostly Cloudy
13:00 9.2 -7.0 31   3 13 24.1 99.26     Mainly Clear
14:00 10.7 -6.7 29   12 6 24.1 99.16     Mainly Clear
15:00 11.2 -7.9 25   34 6 24.1 99.05     Mainly Clear
16:00 12.3 -7.0 25   30 6 24.1 98.99     Clear
17:00 11.8 -7.2 26   31 9 15.0 98.95      
18:00 10.0 -5.8 32   26 6 15.0 98.92      
19:00 6.2 -3.1 51     0 15.0 98.90      
20:00 3.7 -4.0 57   10 6 15.0 98.87      
21:00 3.8 -2.2 65   13 4 15.0 98.80      
22:00 2.2 -2.9 69   19 4 15.0 98.83      
23:00 0.2 -3.2 78     0 15.0 98.76      

Notes on Data Quality.

Legend

  • E = Estimated
  • M = Missing
  • NA = Not Available*
  • [empty] = Indicates an unobserved value
Date modified: